Weather in Xingyi

China     25°05′24″N   104°53′24″E
temp.,
°C
wind,
m/s
gust,
m/s
humid.,
%
clouds,
%
prec.,
mm/h
press.,
hPa
HPBL,
m
12 april, mon
mon1223:00+16ese239798 0.1 1014246
02:00+16ese1298100 0.1 1013192
05:00+16se129997 0.0 1013130
08:00+16se2297100 0.0 1015194
11:00+18se2290100 0.1 1016426
14:00+24se3564100 0.3 10111081
17:00+26ese35550 0.0 1007886
20:00+18ene239347 0.3 1010113
13 april, tue
tue1323:00+17e129870 0.1 101383
02:00+18se1297100 0.1 1012163
05:00+17ese2296100 0.0 1011167
08:00+17se2296100 0.1 1013211
11:00+20se228191 0.1 1013544
14:00+25se346250 0.3 10091236
17:00+24ese556753 0.3 1007979
20:00+19ne2484100 1.7 1010350
14 april, wed
wed1423:00+17ene2289100 1.7 1013310
02:00+17ene1291100 2.3 1012246
05:00+17ene1292100 1.3 1011139
08:00+17ene1292100 2.2 1013263
11:00+18e1289100 0.2 1014446
14:00+21se337994 0.4 1010706
17:00+19ese338599 1.1 1008586
20:00+16ne2492100 3.6 1010356
15 april, thu
thu1523:00+16ene2493100 3.1 1012444
02:00+15ne2392100 4.9 1012342
05:00+15ene1291100 0.2 1012279
08:00+15ene1290100 0.2 1013254
11:00+18se2279100 0.0 1014505
14:00+21se337383 0.1 1010919
17:00+18e5683100 0.4 1010670
20:00+15ene3886100 1.1 1014608
16 april, fri
fri1623:00+14nne2688100 1.4 1017637
02:00+14ne2588100 1.9 1016598
05:00+14ne1390100 0.7 1016331
08:00+14ene1289100 0.8 1018279
11:00+14e1185100 0.1 1019383
14:00+15ene1184100 0.1 1016453
17:00+14ese2289100 0.1 1013436
20:00+13ese1294100 0.1 1015225